Location: *
(41.7492°S, 135.4150°W)
Time: 23:18:36
(UTC+00:00)

USA 306 - Visible Passes

Search period start: 28 January 2022 00:00
Search period end: 07 February 2022 00:00
Orbit: 558 x 570 km, 54.0° (Epoch: 27 January)

Date Brightness Start Highest point End Pass type
(mag) Time Alt. Az. Time Alt. Az. Time Alt. Az.
30 Jan 5.4 13:12:37 10° NNE 13:14:54 14° NE 13:17:11 10° E visible
31 Jan 5.0 13:10:39 10° N 13:13:53 21° NE 13:17:09 10° ESE visible
01 Feb 4.4 13:09:07 10° NNW 13:12:54 31° NE 13:16:42 10° ESE visible
02 Feb 3.7 13:08:01 11° NNW 13:11:55 45° NE 13:16:04 10° ESE visible
03 Feb 3.1 13:07:25 14° NW 13:11:00 67° NE 13:15:17 10° SE visible
04 Feb 5.2 11:30:48 14° NE 11:30:50 14° NE 11:33:11 10° E visible
04 Feb 2.9 13:06:45 16° NW 13:10:06 85° SW 13:14:26 10° SE visible
05 Feb 4.7 11:30:03 21° ENE 11:30:03 21° ENE 11:33:02 10° ESE visible
05 Feb 3.2 13:06:00 17° WNW 13:09:12 61° SW 13:13:30 10° SE visible
06 Feb 4.2 11:29:14 30° ENE 11:29:14 30° ENE 11:32:30 10° ESE visible
06 Feb 3.6 13:05:10 16° W 13:08:21 44° SSW 13:12:31 10° SE visible
